Weather History for Quincy, IL

Change the Weather History Date:

Wednesday, July 24, 2013

  Actual Average Record
Temperature  
Mean Temperature 70 °F 76 °F  
Max Temperature 79 °F 86 °F 111 °F (1934)
Min Temperature 61 °F 66 °F 52 °F (1904)
Degree Days  
Heating Degree Days 0 0  
Month to date heating degree days 0 0  
Since 1 June heating degree days 12 16  
Since 1 July heating degree days 0 0  
Cooling Degree Days 5 11  
Month to date cooling degree days 287 264  
Year to date cooling degree days 658 577  
Since 1 June cooling degree days 546 491  
Growing Degree Days 20 (Base 50)    
Moisture  
Dew Point 55 °F    
Average Humidity 65    
Maximum Humidity 90    
Minimum Humidity 40    
Precipitation  
Precipitation T in 0.12 in 3.10 in (1968)
Month to date precipitation 0.25 3.19  
Year to date precipitation 27.27 21.27  
Sea Level Pressure  
Sea Level Pressure 30.01 in    
Wind  
Wind Speed 6 mph (NE)    
Max Wind Speed 14 mph    
Max Gust Speed 18 mph    
Visibility 10 miles    
Events      
T = Trace of Precipitation, MM = Missing Value Source: NWS Daily Summary

Daily Weather History Graph

Daily Weather History Graph

Search for Another Location

Airport:

Trip Planner

Search our weather history database for the weather conditions in past years. The results will help you decide how hot, cold, wet, or windy it might be!

Date:

Astronomy

Jul. 24, 2013 Rise Set
Actual Time 5:56 AM CDT 8:25 PM CDT
Civil Twilight 5:25 AM CDT 8:56 PM CDT
Nautical Twilight 4:46 AM CDT 9:34 PM CDT
Astronomical Twilight 4:03 AM CDT 10:17 PM CDT
Moon 9:31 PM CDT (7/24) 8:16 AM CDT (7/24)
Length of Visible Light 15h 31m
Length of Day
14h 29m
Waning Gibbous, 94% of the Moon is Illuminated
Jul 24
Waning Gibbous
Jul 29
Last Quarter
Aug 6
New
Aug 14
First Quarter
Aug 20
Full

Hourly Weather History & Observations

Time (CDT) Temp. Dew Point Humidity Pressure Visibility Wind Dir Wind Speed Gust Speed Precip Events Conditions
12:54 AM 63.0 °F 59.0 °F 87% 29.94 in 10.0 mi NNE 4.6 mph - N/A   Clear
1:54 AM 63.0 °F 57.9 °F 84% 29.95 in 10.0 mi Calm Calm - N/A   Clear
2:54 AM 62.1 °F 57.9 °F 86% 29.95 in 10.0 mi NNE 4.6 mph - N/A   Clear
3:54 AM 64.0 °F 59.0 °F 84% 29.96 in 10.0 mi East 10.4 mph - N/A   Clear
4:54 AM 63.0 °F 55.9 °F 78% 29.98 in 10.0 mi East 9.2 mph - 0.00 in   Scattered Clouds
5:54 AM 62.1 °F 55.9 °F 80% 29.98 in 10.0 mi East 5.8 mph - 0.00 in   Clear
6:54 AM 63.0 °F 55.9 °F 78% 29.99 in 10.0 mi East 8.1 mph - N/A   Mostly Cloudy
7:54 AM 64.9 °F 55.0 °F 70% 30.01 in 10.0 mi East 8.1 mph - N/A   Clear
8:54 AM 66.9 °F 54.0 °F 63% 30.01 in 10.0 mi ESE 10.4 mph - N/A   Clear
9:54 AM 70.0 °F 53.1 °F 55% 30.02 in 10.0 mi East 8.1 mph - N/A   Clear
10:54 AM 73.0 °F 54.0 °F 51% 30.03 in 10.0 mi NE 8.1 mph - N/A   Clear
11:54 AM 73.9 °F 55.0 °F 52% 30.04 in 10.0 mi NNW 8.1 mph - N/A   Partly Cloudy
12:54 PM 73.9 °F 55.9 °F 53% 30.04 in 10.0 mi NE 8.1 mph - N/A   Mostly Cloudy
1:54 PM 77.0 °F 55.9 °F 48% 30.04 in 10.0 mi NNE 9.2 mph - N/A   Scattered Clouds
2:54 PM 78.1 °F 55.0 °F 45% 30.03 in 10.0 mi NNE 10.4 mph - N/A   Mostly Cloudy
3:54 PM 75.0 °F 54.0 °F 48% 30.03 in 10.0 mi North 6.9 mph - N/A   Scattered Clouds
4:54 PM 78.1 °F 53.1 °F 42% 30.02 in 10.0 mi NE 10.4 mph 16.1 mph N/A   Clear
5:54 PM 77.0 °F 52.0 °F 42% 30.01 in 10.0 mi North 5.8 mph - N/A   Partly Cloudy
6:54 PM 75.9 °F 53.1 °F 45% 30.01 in 10.0 mi NNE 8.1 mph - N/A   Clear
7:54 PM 72.0 °F 55.9 °F 57% 30.02 in 10.0 mi NNE 4.6 mph - N/A   Clear
8:54 PM 70.0 °F 55.0 °F 59% 30.01 in 10.0 mi ENE 3.5 mph - N/A   Clear
9:54 PM 66.9 °F 55.0 °F 66% 30.04 in 10.0 mi Calm Calm - N/A   Clear
10:54 PM 64.0 °F 55.0 °F 73% 30.04 in 10.0 mi ENE 3.5 mph - N/A   Clear
11:54 PM 63.0 °F 55.0 °F 75% 30.04 in 10.0 mi Calm Calm - N/A   Clear